Kuchera_Ratio
0.0 0.0 0.0 0.0 0.0 0.0 0.0 0.0 0.0 0.0 0.0 0.0 0.0 0.0 0.0 0.0 0.0 0.0 0.0 0.0 0.0 0.0 0.0 0.0 0.0 0.0 0.0 0.0 0.0 0.0 0.0 0.0
0.0 0.0 0.0 0.0 0.0 0.0 0.0 0.0 0.0 0.0 0.0 0.0 0.0 0.0 0.0 0.0 0.0 0.0 0.0 0.0 0.0 0.0 0.0 0.0 0.0 0.0 0.0 0.0 0.0 0.0 0.0 0.0
0.0 0.0 0.0 0.0 0.0 0.0 0.0 0.0 0.0 0.0 0.0 0.0 0.0 0.0 0.0 0.0 0.0 0.0 0.0 0.0 0.0 0.0 0.0 0.0 0.0 0.0 0.0 0.0 0.0 0.4 0.0 0.0
0.0 0.0 0.0 0.0 0.0 0.0 0.0 0.0 0.0 0.0 0.0 0.0 0.0 0.0 0.0 0.0 0.0 0.0 0.0 0.0 0.0 0.1 0.0 0.0 0.5 0.3 1.3 1.7 1.5 2.3 4.9 0.0
0.0 0.0 0.0 0.0 0.0 0.0 0.0 0.0 0.0 0.0 0.0 0.0 0.0 0.0 0.0 0.0 0.0 0.0 0.0 0.0 0.7 1.1 0.0 0.9 0.9 1.7 1.9 3.1 0.9 2.7 3.3 4.3
0.0 0.0 0.0 0.0 0.0 0.0 0.0 0.0 0.0 0.0 0.0 0.0 0.0 0.0 0.0 0.0 0.0 0.5 0.7 0.3 1.1 1.3 0.5 1.1 1.1 1.9 2.3 3.3 2.7 3.9 2.9 3.7
0.0 0.0 0.0 0.0 0.0 0.0 0.0 0.0 0.0 0.0 0.0 0.0 0.0 0.0 0.6 0.0 1.5 1.1 1.3 1.3 1.3 1.5 1.7 1.7 1.7 1.9 3.1 3.7 2.7 4.1 4.5 4.3
0.0 0.0 0.0 0.0 0.0 0.0 0.0 0.0 0.0 0.0 0.1 0.0 0.4 0.7 1.9 2.7 3.3 2.9 3.3 2.3 2.5 3.3 2.5 3.1 3.3 3.3 2.9 2.5 2.9 3.5 3.9 6.7
0.0 0.0 0.0 0.0 0.0 0.0 0.0 0.0 0.5 0.7 1.4 2.0 1.3 1.3 1.9 2.7 3.7 2.5 2.9 3.3 3.3 2.7 2.9 3.3 4.3 4.1 3.7 2.7 3.3 3.7 2.7 3.9
0.0 0.0 0.0 0.0 0.0 0.0 0.0 0.3 1.3 1.5 1.5 1.3 2.3 2.7 3.1 3.7 3.9 3.1 3.3 3.9 3.3 3.7 3.7 4.7 4.9 4.9 4.9 3.7 4.9 5.7 3.9 4.7
0.0 0.0 0.0 0.0 0.0 0.7 0.0 0.0 0.7 1.1 1.3 1.7 2.9 3.1 3.1 3.3 3.1 4.7 4.7 4.7 4.7 4.5 4.9 5.3 5.9 5.5 5.5 4.9 5.1 6.1 5.9 5.1
0.0 0.0 0.0 0.0 0.3 2.0 3.2 1.9 4.1 3.7 1.9 2.3 2.7 3.3 3.7 3.5 4.9 6.1 6.9 5.7 5.9 5.7 5.9 6.9 8.3 8.7 7.9 8.1 7.3 8.9 9.3 8.5
0.0 0.0 0.0 0.0 0.3 2.2 3.6 4.9 5.2 6.9 4.5 3.3 3.7 4.5 4.5 5.3 7.1 7.3 6.9 8.5 6.5 6.9 6.7 8.3 9.9 11.5 10.3 12.3 12.2 11.5 13.0 12.8
0.0 0.0 0.0 0.0 1.4 2.8 4.5 5.6 5.9 6.3 8.5 8.1 5.7 7.3 7.1 10.7 11.1 9.3 9.9 10.1 9.7 8.9 8.3 9.9 10.5 10.7 12.2 12.7 12.9 12.5 13.5 13.2
0.0 0.0 0.0 0.0 2.3 4.8 4.1 3.9 4.1 4.7 6.3 9.5 11.1 11.3 12.2 11.9 12.2 13.0 13.1 12.5 12.6 12.6 12.6 12.2 11.1 10.1 10.5 12.2 12.5 12.9 12.6 13.0
0.0 0.0 0.0 0.0 2.1 3.5 2.3 1.7 1.9 1.9 3.7 4.9 9.7 11.1 12.2 12.8 13.1 13.5 13.4 13.2 12.9 13.2 13.0 12.7 11.7 9.3 9.9 12.7 13.4 13.7 13.7 13.5
0.0 0.0 0.0 0.0 0.4 2.5 1.7 1.7 1.9 1.1 2.3 3.1 4.3 7.3 7.3 10.3 9.9 9.9 9.9 12.9 13.1 13.1 13.3 12.7 12.4 9.1 9.3 10.5 12.7 13.4 13.6 14.0
0.0 0.0 0.0 0.0 1.1 1.3 1.5 0.9 0.3 1.5 1.5 1.7 3.9 7.3 5.9 6.3 6.3 7.5 9.1 10.5 11.3 12.2 12.4 10.7 10.1 8.5 9.3 10.3 12.1 12.4 13.1 13.5
0.0 0.0 0.0 0.0 0.0 0.0 0.0 0.0 0.7 1.3 1.5 2.1 2.9 4.5 5.1 5.3 6.7 7.9 9.1 8.7 9.9 10.3 11.3 9.7 8.5 8.5 9.3 10.5 11.3 8.9 10.5 11.9